Hourly Data Report for December 12, 2019

MUSKOKA
ONTARIO
Current Station Operator: NAVCAN

44°58'29.000" N
79°18'12.000" W
281.90 m
6115529
71532
YQA

Download Data

Hourly Data (December 2019)
Hourly Data Report for December 12, 2019
TIME
LST
Temp Definition
°C
Dew Point Definition
°C
Rel Hum Definition
%
Precip. Amount Definition
mm

Wind Dir Definition
10's deg

Wind Spd Definition
km/h
Visibility Definition
km
Stn Press Definition
kPa
Hmdx Definition


Wind Chill Definition


Weather Definition


00:00 -7.2 -8.7 89 0.2 30 9 1.6 99.47   -12 Snow
01:00 -6.9 -8.6 88 0.0 25 8 2.8 99.51   -11 Snow
02:00 -7.2 -8.7 89 0.2 22 8 2.4 99.58   -11 Snow
03:00 -7.1 -8.8 88 0.0 24 8 2.8 99.68   -11 Snow
04:00 -6.9 -8.6 88 0.2 23 11 4.0 99.71   -12 Snow
05:00 -6.8 -8.8 86 0.2 22 8 9.7 99.75   -11 Snow
06:00 -6.8 -8.9 85 0.0 22 11 16.1 99.78   -12 Snow
07:00 -7.5 -9.2 88 0.0 19 11 14.5 99.84   -13 Snow
08:00 -8.2 -10.0 87 0.0 19 13 9.7 99.91   -14 Snow
09:00 -8.3 -10.9 82 0.0 20 17 16.1 99.97   -15 Snow
10:00 -7.3 -11.0 75 0.0 18 15 16.1 99.95   -13 LegendNANA
11:00 -6.7 -10.8 73 0.0 18 15 16.1 99.94   -13 LegendNANA
12:00 -5.8 -10.4 70 0.0 19 13 16.1 99.89   -11 LegendNANA
13:00 -6.1 -10.1 73 0.0 15 22 16.1 99.76   -13 LegendNANA
14:00 -6.2 -11.1 69 0.0 16 15 16.1 99.75   -12 LegendNANA
15:00 -6.8 -9.1 84 0.0 16 13 2.0 99.71   -12 Snow
16:00 -6.9 -8.4 89 0.0 11 8 12.9 99.64   -11 Snow
17:00 -6.9 -9.0 85 0.0 11 9 16.1 99.51   -11 LegendNANA
18:00 -6.1 -9.0 80 0.0 13 17 16.1 99.35   -12 LegendNANA
19:00 -5.1 -7.4 84 0.0 14 24 16.1 99.25   -12 Snow
20:00 -4.5 -7.2 82 0.0 14 26 16.1 99.11   -12 LegendNANA
21:00 -4.1 -7.4 78 0.0 13 26 16.1 99.02   -11 LegendNANA
22:00 -3.7 -7.3 76 0.0 14 26 16.1 98.91   -11 LegendNANA
23:00 -3.4 -7.2 75 0.0 13 15 16.1 98.85   -9 LegendNANA

Notes on Data Quality.

Legend

  • E = Estimated
  • M = Missing
  • NA = Not Available*
  • [empty] = Indicates an unobserved value
Date modified: